Location: �clusier
(49.9361°N, 2.7869°E)
Time: 20:35:24
(UTC+00:00)

Cosmos 1452 Rocket - Pass Details

Date: 01 November 2021
Orbit: 767 x 775 km, 74.1° (Epoch: 04 December)

Event Time Altitude Azimuth Distance (km) Brightness Sun altitude
Rises 20:36:39 0° 241° (WSW) 3,243 7.1 -40.0°
Reaches altitude 10° 20:39:26 10° 255° (WSW) 2,321 6.4 -40.4°
Enters shadow 20:39:59 12° 259° (W) 2,156 6.2 -40.4°
